Wake Island Airfield, Wake Island

10:29 PM WAKT on September 04, 2015 (GMT +1200)
Wake Island Army Air Field | | Change Station
CLOSE
Current Station
Airport
Location: Wake Island, Wake Island Army,
Elevation: 13 ft
Nearby Weather Stations

Elev 13 ft 19.28 °N, 166.64 °E | Updated 31 minutes ago

Partly Cloudy
Partly Cloudy
85 °F
Feels Like 92 °F
N
10
Wind Variable Wind from NE

Today
High -- | Low -- °F
--% Chance of Precip.
Yesterday
High -- | Low -- °F
Precip. -- in
6:38 AM 7:06 PM
Waning Gibbous, 61% visible
Pressure 29.84 in
Visibility 6.2 miles
Clouds Few 2900 ft
Heat Index 92 °F
Dew Point 74 °F
Humidity 70%
Rainfall 0.00 in
Snow Depth Not available.
UV 0 out of 12
Pollen Not available.
Air Quality Not available.
Flu Activity Not available.
METAR PWAK 040958Z AUTO 04009KT 9999 FEW029 29/23 A2982 RMK AO2 SLP104 T02930234 $
Pressure 29.84 in
Visibility 6.2 miles
Clouds Few 2900 ft
Heat Index 92 °F
Dew Point 74 °F
Humidity 70%
Rainfall 0.00 in
Snow Depth Not available.
UV 0 out of 12
Pollen Not available.
Air Quality Not available.
Flu Activity Not available.
METAR PWAK 040958Z AUTO 04009KT 9999 FEW029 29/23 A2982 RMK AO2 SLP104 T02930234 $

10-Day Weather Forecast

×

Almanac

Astronomy

Sep. 04, 2015 Rise Set
Actual Time
Civil Twilight
Nautical Twilight
Astronomical Twilight
Moon
Length of Visible Light
Length of Day
Tomorrow will be .
, % of the Moon is Illuminated

Today's Extremes

Country Highs Country Lows

Community

WunderPhotos

Upload Photos

1,852,146 photos uploaded!

WunderBlogs® & News

Nearby

Air Quality

  Air Quality AQ Index Pollutant
Not available.

Snow Depth

Station Depth Elevation

Earthquake Activity

City Distance Mag. Time & Date
Minimum magnitude displayed is 2.5.

Coastal Water Temperatures

Place Temperature

Stations

Nearby Weather Stations

Station Location Temp. Windchill Dew Point Humidity Wind Precip. Elev Updated Type